Home   Weather   Germany   Ismaning   Past weeks
Flag for Germany

Past Weather in Ismaning, Bavaria, Germany — Yesterday and Last 2 Weeks

Currently: 48 °F. Clear. (Weather station: Munich / Franz Josef Strauss Airport, Germany). See more current weather

Past Weather in Ismaning — Graph

°F

Ismaning Temperature Yesterday

Maximum temperature yesterday: 70 °F (at 3:20 pm)
Minimum temperature yesterday: 50 °F (at 5:50 am)
Average temperature yesterday: 60 °F

High & Low Weather Summary for the Past Weeks

 TemperatureHumidityPressure
High73 °F (May 13, 3:20 pm)100% (May 5, 3:20 am)30.30 "Hg (May 5, 3:20 am)
Low37 °F (May 10, 4:50 am)33% (May 13, 6:20 pm)29.59 "Hg (May 16, 6:20 pm)
Average58 °F73%29.94 "Hg
* Reported May 5 3:20 am — May 20 3:20 am, Ismaning. Weather by CustomWeather, © 2024

Note: Actual official high and low records may vary slightly from our data, if they occured in-between our weather recording intervals... More about our weather records

Ismaning Weather History for the Previous 24 Hours

Scroll right to see more
 ConditionsComfort  
Time TempWeatherWind HumidityBarometerVisibility
3:20 am
Mon, May 20
48 °FClear.3 mph100%29.89 "Hg10 mi
2:50 am52 °FClear.3 mph88%29.89 "Hg10 mi
2:20 am54 °FClear.3 mph88%29.89 "Hg10 mi
1:50 am54 °FClear.6 mph88%29.89 "Hg10 mi
1:20 am55 °FClear.7 mph82%29.89 "Hg10 mi
12:50 am55 °FClear.2 mph88%29.89 "Hg10 mi
12:20 am55 °FClear.1 mph88%29.89 "Hg10 mi
11:20 pm
Sun, May 19
54 °FClear.1 mph88%29.89 "Hg10 mi
10:50 pm59 °FClear.2 mph77%29.86 "Hg10 mi
10:20 pm59 °FClear.3 mph77%29.86 "Hg10 mi
9:50 pm61 °FClear.2 mph72%29.86 "Hg10 mi
9:20 pm63 °FClear.2 mph68%29.86 "Hg10 mi
8:50 pm64 °FSprinkles. Passing clouds.5 mph64%29.83 "HgN/A
8:20 pm68 °FScattered showers. Passing clouds.3 mph49%29.83 "HgN/A
7:50 pm68 °FPassing clouds.5 mph60%29.83 "HgN/A
7:20 pm68 °FPassing clouds.5 mph53%29.83 "HgN/A
6:50 pm70 °FSunny.2 mph50%29.83 "Hg10 mi
6:20 pm68 °FPassing clouds.5 mph60%29.83 "HgN/A
5:50 pm68 °FPassing clouds.5 mph53%29.83 "HgN/A
5:20 pm68 °FSunny.7 mph53%29.86 "Hg10 mi
4:50 pm70 °FPassing clouds.5 mph53%29.86 "HgN/A
4:20 pm70 °FPassing clouds.7 mph46%29.86 "HgN/A
3:20 pm70 °FPassing clouds.5 mph53%29.86 "HgN/A
2:50 pm68 °FPassing clouds.5 mph56%29.89 "HgN/A
1:50 pm66 °FPassing clouds.8 mph56%29.89 "HgN/A
1:20 pm66 °FPassing clouds.7 mph56%29.89 "HgN/A
12:50 pm64 °FPassing clouds.9 mph56%29.92 "HgN/A
12:20 pm64 °FPassing clouds.7 mph60%29.92 "HgN/A
11:50 am64 °FPassing clouds.8 mph60%29.92 "HgN/A
11:20 am63 °FPassing clouds.7 mph64%29.92 "HgN/A
10:20 am63 °FPassing clouds.7 mph64%29.92 "HgN/A
9:50 am61 °FPassing clouds.8 mph72%29.92 "HgN/A
9:20 am59 °FPassing clouds.5 mph77%29.92 "HgN/A
8:20 am57 °FPassing clouds.5 mph82%29.92 "HgN/A
7:50 am57 °FSunny.6 mph82%29.92 "Hg10 mi
7:20 am55 °FPassing clouds.3 mph82%29.92 "HgN/A
6:50 am54 °FSunny.2 mph88%29.92 "Hg10 mi
6:20 am52 °FLight fog.1 mph94%29.92 "Hg1 mi
5:50 am50 °FLight fog.1 mph100%29.92 "Hg1 mi
5:20 am52 °FClear.1 mph94%29.92 "Hg10 mi
4:50 am52 °FClear.2 mph94%29.92 "Hg10 mi
4:20 am52 °FPassing clouds.3 mph94%29.92 "HgN/A
Weather by CustomWeather, © 2024

See weather overview